TimeEET,TemperatureF,Dew PointF,Humidity,Sea Level PressureIn,VisibilityMPH,Wind Direction,Wind SpeedMPH,Gust SpeedMPH,PrecipitationIn,Events,Conditions,WindDirDegrees,DateUTC
12:20 AM,37.4,21.2,52,30.18,-9999.0,North,2.3,-,N/A,,Clear,350,2013-12-18 22:20:00
12:50 AM,35.6,21.2,56,30.18,-9999.0,NNE,4.6,-,N/A,,Clear,30,2013-12-18 22:50:00
1:20 AM,33.8,21.2,60,30.18,-9999.0,NNE,4.6,-,N/A,,Clear,30,2013-12-18 23:20:00
1:50 AM,35.6,23.0,60,30.18,-9999.0,North,5.8,-,N/A,,Clear,10,2013-12-18 23:50:00
2:00 AM,36,22,45,30.19,6,North,5.8,,,,,10,2013-12-19 00:00:00
2:20 AM,33.8,21.2,60,30.18,-9999.0,NNE,6.9,-,N/A,,Clear,20,2013-12-19 00:20:00
2:50 AM,32.0,23.0,69,30.18,-9999.0,NNE,6.9,-,N/A,,Clear,30,2013-12-19 00:50:00
3:20 AM,33.8,21.2,60,30.18,-9999.0,NW,2.3,-,N/A,,Clear,320,2013-12-19 01:20:00
3:50 AM,35.6,21.2,56,30.18,-9999.0,North,4.6,-,N/A,,Clear,10,2013-12-19 01:50:00
4:20 AM,33.8,21.2,60,30.18,-9999.0,NNE,4.6,-,N/A,,Clear,30,2013-12-19 02:20:00
4:50 AM,32.0,23.0,69,30.18,-9999.0,NE,6.9,-,N/A,,Clear,40,2013-12-19 02:50:00
5:00 AM,32,23,57,30.19,6,NE,6.9,,,,,40,2013-12-19 03:00:00
5:20 AM,32.0,23.0,69,30.18,-9999.0,NNE,5.8,-,N/A,,Clear,20,2013-12-19 03:20:00
5:50 AM,35.6,23.0,60,30.18,-9999.0,North,4.6,-,N/A,,Clear,360,2013-12-19 03:50:00
6:20 AM,32.0,21.2,64,30.21,-9999.0,NNW,2.3,-,N/A,,Clear,340,2013-12-19 04:20:00
6:50 AM,33.8,21.2,60,30.21,-9999.0,NNW,3.5,-,N/A,,Clear,340,2013-12-19 04:50:00
7:20 AM,35.6,23.0,60,30.21,-9999.0,NW,4.6,-,N/A,,Clear,310,2013-12-19 05:20:00
7:50 AM,37.4,30.2,75,30.21,-9999.0,NNW,3.5,-,N/A,,Clear,340,2013-12-19 05:50:00
8:00 AM,38,29,61,30.24,6,NNW,3.5,,,,,340,2013-12-19 06:00:00
8:20 AM,41.0,30.2,65,30.21,-9999.0,NNW,2.3,-,N/A,,Clear,340,2013-12-19 06:20:00
8:50 AM,46.4,26.6,46,30.21,-9999.0,NW,2.3,-,N/A,,Clear,310,2013-12-19 06:50:00
9:20 AM,50.0,26.6,40,30.24,-9999.0,NNW,2.3,-,N/A,,Clear,340,2013-12-19 07:20:00
9:50 AM,53.6,23.0,30,30.24,-9999.0,NNE,6.9,-,N/A,,Clear,20,2013-12-19 07:50:00
10:20 AM,57.2,23.0,27,30.21,-9999.0,NE,6.9,-,N/A,,Clear,40,2013-12-19 08:20:00
10:50 AM,59.0,23.0,25,30.21,-9999.0,ENE,5.8,-,N/A,,Clear,60,2013-12-19 08:50:00
11:00 AM,58,23,14,30.24,6,ENE,5.8,,,,,60,2013-12-19 09:00:00
11:20 AM,59.0,21.2,23,30.21,-9999.0,NE,4.6,-,N/A,,Clear,40,2013-12-19 09:20:00
11:50 AM,60.8,21.2,22,30.21,-9999.0,ENE,4.6,-,N/A,,Clear,70,2013-12-19 09:50:00
12:20 PM,62.6,19.4,19,30.18,-9999.0,North,3.5,-,N/A,,Clear,350,2013-12-19 10:20:00
12:50 PM,60.8,17.6,19,30.18,-9999.0,NE,3.5,-,N/A,,Clear,50,2013-12-19 10:50:00
1:20 PM,62.6,19.4,19,30.18,-9999.0,NE,2.3,-,N/A,,Clear,40,2013-12-19 11:20:00
1:50 PM,62.6,21.2,20,30.18,-9999.0,SE,6.9,-,N/A,,Clear,140,2013-12-19 11:50:00
2:00 PM,62,21,11,30.19,6,SE,6.9,,,,,140,2013-12-19 12:00:00
2:20 PM,62.6,21.2,20,30.18,-9999.0,SE,6.9,-,N/A,,Clear,140,2013-12-19 12:20:00
2:50 PM,62.6,19.4,19,30.18,-9999.0,ESE,2.3,-,N/A,,Clear,110,2013-12-19 12:50:00
3:20 PM,60.8,19.4,20,30.18,-9999.0,SE,4.6,-,N/A,,Clear,140,2013-12-19 13:20:00
3:50 PM,59.0,19.4,22,30.18,-9999.0,SSE,2.3,-,N/A,,Clear,150,2013-12-19 13:50:00
4:20 PM,57.2,21.2,25,30.18,-9999.0,SSW,2.3,-,N/A,,Clear,200,2013-12-19 14:20:00
4:50 PM,53.6,21.2,28,30.18,-9999.0,East,2.3,-,N/A,,Clear,80,2013-12-19 14:50:00
5:00 PM,54,21,16,30.21,6,East,2.3,,,,,80,2013-12-19 15:00:00
5:20 PM,42.8,23.0,46,30.18,-9999.0,NE,8.1,-,N/A,,Clear,40,2013-12-19 15:20:00
5:50 PM,42.8,23.0,46,30.21,-9999.0,NE,8.1,-,N/A,,Clear,50,2013-12-19 15:50:00
6:20 PM,41.0,21.2,45,30.21,-9999.0,NE,6.9,-,N/A,,Clear,40,2013-12-19 16:20:00
6:50 PM,39.2,23.0,52,30.24,-9999.0,NNE,6.9,-,N/A,,Clear,30,2013-12-19 16:50:00
7:20 PM,35.6,23.0,60,30.24,-9999.0,NE,6.9,-,N/A,,Clear,50,2013-12-19 17:20:00
7:50 PM,35.6,23.0,60,30.24,-9999.0,NE,8.1,-,N/A,,Clear,40,2013-12-19 17:50:00
8:00 PM,36,23,46,30.26,6,NE,8.1,,,,,40,2013-12-19 18:00:00
8:20 PM,35.6,23.0,60,30.24,-9999.0,North,4.6,-,N/A,,Clear,10,2013-12-19 18:20:00
8:50 PM,37.4,23.0,56,30.24,-9999.0,NNE,6.9,-,N/A,,Clear,20,2013-12-19 18:50:00
9:20 PM,33.8,23.0,65,30.24,-9999.0,NE,8.1,-,N/A,,Clear,40,2013-12-19 19:20:00
9:50 PM,35.6,24.8,65,30.24,-9999.0,NNE,8.1,-,N/A,,Clear,30,2013-12-19 19:50:00
10:20 PM,37.4,24.8,60,30.24,-9999.0,NNE,5.8,-,N/A,,Clear,30,2013-12-19 20:20:00
10:50 PM,37.4,24.8,60,30.27,-9999.0,NE,2.3,-,N/A,,Clear,50,2013-12-19 20:50:00
11:00 PM,37,24,48,30.28,6,NE,2.3,,,,,50,2013-12-19 21:00:00
11:20 PM,35.6,24.8,65,30.27,-9999.0,NE,4.6,-,N/A,,Clear,50,2013-12-19 21:20:00
11:50 PM,35.6,24.8,65,30.27,-9999.0,NNE,6.9,-,N/A,,Clear,30,2013-12-19 21:50:00